This demonstration page uses our WeatherBlox Daily Observations layout. Learn more.

Hourly Observations for May 14, 2016

Temp ( °F °C ) Dew Point ( °F °C ) Humidity (%) Winds ( mph kmh ) Pressure ( in mb ) Visibility ( mi km ) Precip ( " mm )
12:15 am 00:15 Clear 59 15 50 10 72 72 Calm 29.91 1013 10 16.0934 0 0
12:35 am 00:35 Clear 57 14 50 10 77 77 WNW 13 20 29.91 1013 10 16.0934 0 0
12:55 am 00:55 Clear 59 15 50 10 72 72 WNW 3 6 29.91 1013 10 16.0934 0 0
1:15 am 01:15 Clear 55 13 52 11 88 88 Calm 29.91 1013 10 16.0934 0 0
1:35 am 01:35 Clear 55 13 52 11 88 88 NW 9 15 29.88 1012 10 16.0934 0 0
1:55 am 01:55 Clear 55 13 50 10 82 82 WNW 5 7 29.88 1012 10 16.0934 0 0
2:15 am 02:15 Clear 57 14 50 10 77 77 NNW 6 9 29.88 1012 10 16.0934 0 0
2:30 am 02:30 Clear 57 14 50 10 77 77 NW 7 11 29.88 1012 10 16.0934 0 0
2:55 am 02:55 Clear 59 15 50 10 72 72 NNW 7 11 29.88 1012 10 16.0934 0 0
3:15 am 03:15 Clear 59 15 50 10 72 72 NNW 3 6 29.88 1012 10 16.0934 0 0
3:35 am 03:35 Clear 55 13 50 10 82 82 Calm 29.88 1012 10 16.0934 0 0
3:55 am 03:55 Clear 57 14 50 10 77 77 Calm 29.88 1012 10 16.0934 0 0
4:15 am 04:15 Clear 55 13 50 10 82 82 Calm 29.88 1012 10 16.0934 0 0
4:35 am 04:35 Clear 54 12 50 10 88 88 Calm 29.85 1011 10 16.0934 0 0
4:55 am 04:55 Clear 52 11 50 10 94 94 Calm 29.85 1011 10 16.0934 0 0
5:15 am 05:15 Clear 52 11 50 10 94 94 Calm 29.88 1012 10 16.0934 0 0
5:35 am 05:35 Clear 52 11 50 10 94 94 SSW 3 6 29.88 1012 10 16.0934 0 0
5:55 am 05:55 Clear 52 11 50 10 94 94 Calm 29.85 1011 10 16.0934 0 0
6:15 am 06:15 Sunny 52 11 50 10 94 94 Calm 29.85 1011 10 16.0934 0 0
6:35 am 06:35 Sunny 52 11 50 10 94 94 SW 3 6 29.85 1011 10 16.0934 0 0
6:55 am 06:55 Sunny 52 11 50 10 94 94 Calm 29.85 1011 10 16.0934 0 0
7:15 am 07:15 Sunny 55 13 50 10 82 82 Calm 29.85 1011 10 16.0934 0 0
7:35 am 07:35 Sunny 57 14 52 11 82 82 SSW 5 7 29.85 1011 10 16.0934 0 0
7:55 am 07:55 Sunny 61 16 52 11 72 72 SSW 9 15 29.85 1011 10 16.0934 0 0
8:15 am 08:15 Sunny 63 17 54 12 73 73 SW 5 7 29.83 1010 10 16.0934 0 0
8:35 am 08:35 Sunny 64 18 55 13 73 73 SSW 10 17 29.83 1010 10 16.0934 0 0
8:55 am 08:55 Sunny 66 19 54 12 64 64 S 6 9 29.83 1010 10 16.0934 0 0
9:15 am 09:15 Sunny 68 20 52 11 56 56 S 6 9 29.83 1010 10 16.0934 0 0
9:35 am 09:35 Sunny 70 21 52 11 53 53 S 9 15 29.83 1010 10 16.0934 0 0
9:55 am 09:55 Sunny 72 22 52 11 50 50 S 16 26 29.8 1009 10 16.0934 0 0
10:15 am 10:15 Sunny 70 21 52 11 53 53 S 8 13 29.8 1009 10 16.0934 0 0
10:35 am 10:35 Sunny 72 22 52 11 50 50 SSW 13 20 29.8 1009 10 16.0934 0 0
10:55 am 10:55 Sunny 72 22 52 11 50 50 S 7 11 29.8 1009 10 16.0934 0 0
11:15 am 11:15 Sunny 72 22 52 11 50 50 SSW 9 15 29.8 1009 10 16.0934 0 0
11:35 am 11:35 Partly Cloudy 72 22 52 11 50 50 SSW 14 22 29.77 1008 10 16.0934 0 0
11:55 am 11:55 Sunny 73 23 54 12 50 50 SW 12 19 29.77 1008 10 16.0934 0 0
12:15 pm 12:15 Sunny 73 23 52 11 47 47 WSW 10 17 29.77 1008 10 16.0934 0 0
12:35 pm 12:35 Sunny 73 23 54 12 50 50 WSW 6 9 29.77 1008 10 16.0934 0 0
12:55 pm 12:55 Partly Cloudy 73 23 54 12 50 50 S 7 11 29.74 1007 10 16.0934 0 0
1:15 pm 13:15 Partly Cloudy 75 24 52 11 44 44 W 5 7 29.74 1007 10 16.0934 0 0
1:35 pm 13:35 Cloudy 75 24 52 11 44 44 W 8 13 29.74 1007 10 16.0934 0 0
1:55 pm 13:55 Cloudy 72 22 54 12 53 53 W 7 11 29.74 1007 10 16.0934 0 0
2:15 pm 14:15 Cloudy with Rain 61 16 55 13 83 83 NW 23 37 29.77 1008 5 8.0467 0 0
2:35 pm 14:35 Cloudy with Light Rain 59 15 55 13 88 88 WNW 16 26 29.77 1008 10 16.0934 0 0
2:55 pm 14:55 Cloudy with Rain 59 15 55 13 88 88 W 13 20 29.77 1008 5 8.0467 0 0
3:15 pm 15:15 Cloudy with Heavy Rain 59 15 55 13 88 88 S 15 24 29.74 1007 3 4.82802 0 0
3:35 pm 15:35 Cloudy with Light Rain 59 15 57 14 94 94 SW 12 19 29.71 1006 7 11.26538 0 0
3:55 pm 15:55 Partly Cloudy 59 15 57 14 94 94 WSW 8 13 29.71 1006 10 16.0934 0 0
4:15 pm 16:15 Mostly Cloudy 59 15 59 15 100 100 SW 5 7 29.71 1006 10 16.0934 0 0
4:35 pm 16:35 Mostly Cloudy 61 16 59 15 94 94 SW 7 11 29.71 1006 10 16.0934 0 0
4:55 pm 16:55 Partly Cloudy 64 18 59 15 83 83 W 7 11 29.71 1006 10 16.0934 0 0
5:15 pm 17:15 Sunny 64 18 59 15 83 83 WSW 7 11 29.71 1006 10 16.0934 0 0
5:35 pm 17:35 Mostly Cloudy 66 19 59 15 78 78 WSW 7 11 29.71 1006 10 16.0934 0 0
5:55 pm 17:55 Cloudy 66 19 59 15 78 78 W 8 13 29.71 1006 10 16.0934 0 0
6:15 pm 18:15 Mostly Cloudy 64 18 55 13 73 73 W 10 17 29.71 1006 10 16.0934 0 0
6:35 pm 18:35 Cloudy 66 19 55 13 68 68 WNW 13 20 29.71 1006 10 16.0934 0 0
6:55 pm 18:55 Cloudy 61 16 52 11 72 72 WNW 25 41 29.74 1007 10 16.0934 0 0
7:15 pm 19:15 Partly Cloudy 61 16 46 8 59 59 WNW 22 35 29.74 1007 10 16.0934 0 0
7:35 pm 19:35 Sunny 61 16 46 8 59 59 WNW 21 33 29.74 1007 10 16.0934 0 0
7:55 pm 19:55 Sunny 59 15 46 8 63 63 NW 15 24 29.77 1008 10 16.0934 0 0
8:15 pm 20:15 Partly Cloudy 57 14 45 7 63 63 NW 10 17 29.77 1008 10 16.0934 0 0
8:35 pm 20:35 Mostly Cloudy 57 14 45 7 63 63 NNW 14 22 29.77 1008 10 16.0934 0 0
8:55 pm 20:55 Partly Cloudy 55 13 41 5 59 59 WNW 26 43 29.77 1008 10 16.0934 0 0
9:15 pm 21:15 Clear 55 13 41 5 59 59 WNW 25 41 29.8 1009 10 16.0934 0 0
9:35 pm 21:35 Clear 55 13 41 5 59 59 WNW 28 44 29.8 1009 10 16.0934 0 0
9:55 pm 21:55 Clear 54 12 41 5 63 63 WNW 26 43 29.83 1010 10 16.0934 0 0
10:15 pm 22:15 Partly Cloudy 54 12 41 5 63 63 WNW 14 22 29.85 1011 10 16.0934 0 0
10:35 pm 22:35 Mostly Cloudy 54 12 43 6 67 67 NW 16 26 29.85 1011 10 16.0934 0 0
10:50 pm 22:50 Mostly Cloudy 54 12 43 6 67 67 WNW 20 31 29.85 1011 10 16.0934 0 0
11:15 pm 23:15 Partly Cloudy 52 11 43 6 72 72 WNW 18 30 29.85 1011 10 16.0934 0 0
11:35 pm 23:35 Mostly Cloudy 52 11 43 6 72 72 NW 15 24 29.85 1011 10 16.0934 0 0
11:55 pm 23:55 Partly Cloudy 52 11 43 6 72 72 NW 9 15 29.85 1011 10 16.0934 0 0

Powered by AerisWeather